This is the latest recevied weather packets stored in our database for station/object W7TJC. If no packets are shown the sender has not sent any weather packets the latest 10 day(s).
| Time | Temp. | Humidity | Pressure | Rain* | Wind** | Luminosity | Snow |
|---|---|---|---|---|---|---|---|
| 1777884021 | 14.44° C | 67% | 1010.8 hPa | 0 mm | - | 0 W/m² | - |
| 1777883720 | 14.44° C | 67% | 1011 hPa | 0 mm | - | 0 W/m² | - |
| 1777883416 | 14.44° C | 68% | 1011 hPa | 0 mm | - | 0 W/m² | - |
| 1777883112 | 14.44° C | 66% | 1011 hPa | 0 mm | - | 0 W/m² | - |
| 1777882809 | 14.44° C | 65% | 1010.8 hPa | 0 mm | - | 0 W/m² | - |
| 1777882506 | 14.44° C | 62% | 1010.6 hPa | 0 mm | - | 0 W/m² | - |
| 1777882201 | 14.44° C | 65% | 1011 hPa | 0 mm | - | 0 W/m² | - |
| 1777881898 | 14.44° C | 68% | 1010.8 hPa | 0 mm | - | 0 W/m² | - |
| 1777881595 | 15° C | 65% | 1010.9 hPa | 0 mm | - | 0 W/m² | - |
| 1777881292 | 15° C | 63% | 1010.6 hPa | 0 mm | - | 0 W/m² | - |
| 1777880989 | 15.56° C | 62% | 1010.9 hPa | 0 mm | - | 0 W/m² | - |
| 1777880687 | 15.56° C | 58% | 1011 hPa | 0 mm | - | 0 W/m² | - |
| 1777880385 | 15° C | 59% | 1010.7 hPa | 0 mm | - | 0 W/m² | - |
| 1777880083 | 15° C | 60% | 1010.8 hPa | 0 mm | - | 0 W/m² | - |
| 1777879781 | 15° C | 64% | 1011 hPa | 0 mm | - | 0 W/m² | - |
| 1777879478 | 15° C | 64% | 1010.8 hPa | 0 mm | - | 0 W/m² | - |
| 1777879175 | 15.56° C | 64% | 1010.9 hPa | 0 mm | - | 0 W/m² | - |
| 1777878872 | 15.56° C | 62% | 1010.8 hPa | 0 mm | - | 0 W/m² | - |
| 1777878569 | 15.56° C | 63% | 1010.8 hPa | 0 mm | - | 0 W/m² | - |
| 1777878266 | 15.56° C | 62% | 1010.8 hPa | 0 mm | - | 0 W/m² | - |
| 1777877961 | 15.56° C | 61% | 1010.9 hPa | 0 mm | - | 0 W/m² | - |
| 1777877658 | 15.56° C | 60% | 1011 hPa | 0 mm | - | 0 W/m² | - |
| 1777877356 | 15.56° C | 60% | 1010.7 hPa | 0 mm | - | 0 W/m² | - |
| 1777877053 | 15.56° C | 59% | 1010.9 hPa | 0 mm | - | 0 W/m² | - |
| 1777876750 | 16.11° C | 61% | 1010.7 hPa | 0 mm | - | 0 W/m² | - |
* Rain latest hour (hover to see other rain measurements)
** Current wind speed in m/s (hover to see current wind gust speed)